Regional Weather Roundup
Issued by NWS

Home | Current Version | Previous Version | Text Only | Print | Product List | Glossary On
Versions: 1 2 3 4 5 6 7 8 9 10 11 12 13 14 15 16 17 18 19 20 21 22 23 24 25 26 27 28 29 30 31 32 33 34 35 36 37 38 39 40 41 42 43 44 45 46 47 48 49 50
000
ASUS44 KJAN 301710
RWRMS

MISSISSIPPI HOURLY WEATHER ROUNDUP
NATIONAL WEATHER SERVICE JACKSON MS
1200 PM CDT TUE JUN 30 2015

NOTE: "FAIR: INDICATES FEW OR NO CLOUDS BELOW 12,000 FEET WITH NO
SIGNIFICANT WEATHER AND/OR OBSTRUCTIONS TO VISIBILITY.

MSZ001>002-007>008-010>013-018>021-025>028-034>036-301800-
NORTHWEST MISSISSIPPI

CITY           SKY/WX    TMP DP  RH WIND       PRES   REMARKS
CLARKSDALE     CLOUDY    81  77  89 SW7       30.00S
CLEVELAND      PTSUNNY   81  77  89 SW15      30.00S
GREENWOOD      TSTM      72  68  87 SE6       30.03R
GREENVILLE     MOSUNNY   83  74  74 S14       30.00S
OLIVE BRANCH   CLOUDY    81  77  89 SW10      29.99R
OXFORD         FAIR      75  68  78 SW8       30.03S
TUNICA         MOSUNNY   81  72  74 SW9       29.99S
$$

MSZ003>006-009-014>017-022>024-029>033-037>039-301800-
NORTHEAST MISSISSIPPI

CITY           SKY/WX    TMP DP  RH WIND       PRES   REMARKS
COLUMBUS AFB   CLOUDY    75  69  83 VRB5      30.02S
CORINTH        PTSUNNY   82  72  69 W9        29.98S
GOLDN TRIANGLE SUNNY     75  68  78 S12       30.02R
STARKVILLE     FAIR      75  70  83 S8        30.05R
TUPELO         CLOUDY    75  70  84 SW8       30.01R
$$

MSZ040-058-301800-
CENTRAL MISSISSIPPI

CITY           SKY/WX    TMP DP  RH WIND       PRES   REMARKS
JACKSON INTL   LGT RAIN  71  69  93 S9        30.05F
JACKSON HAWKNS CLOUDY    70  68  93 S7        30.07F
MERIDIAN KEY   LGT RAIN  70  66  88 SW8       30.14R
MERIDIAN NAS   TSTM      70  68  93 SW9       30.11R
VICKSBURG      NOT AVBL
$$

MSZ059>079-301800-
SOUTH MISSISSIPPI

CITY           SKY/WX    TMP DP  RH WIND       PRES   REMARKS
BROOKHAVEN     FAIR      84  75  74 SW7       30.10F HX  92
HATTIESBURG    MOSUNNY   87  72  60 SW9       30.10R HX  93
MCCOMB         MOSUNNY   85  74  69 SW9       30.09F HX  92
NATCHEZ        PTSUNNY   86  75  70 SW9       30.07F HX  95
PINE BELT      MOSUNNY   84  63  48 SW6       30.11R
$$

MSZ080>082-301800-
COASTAL MISSISSIPPI

CITY           SKY/WX    TMP DP  RH WIND       PRES   REMARKS
BAY ST LOUIS   MOSUNNY   88  68  51 MISG      30.09R HX  91
BILOXI         SUNNY     87  77  71 SW9       30.09S HX  98
PASCAGOULA     MOSUNNY   89  75  63 VRB5      30.09R HX  99
GULFPORT       MOSUNNY   88  72  58 VRB7      30.09R HX  94
$$


USA.gov is the U.S. government's official web portal to all federal, state and local government web resources and services.